1508230800.32,11474,21.13,74870.8,21.43,-24.11,-26.65,0,*4F
1508230801.57,11475,21.13,74868.5,21.43,-24.57,-26.93,0,*45
1508230802.81,11476,21.13,74870.5,21.43,-23.89,-26.23,0,*49
1508230804.04,11477,21.13,74870.0,21.41,-23.39,-25.75,0,*41
1508230805.25,11478,21.13,74870.8,21.41,-22.67,-25.09,0,*4F
1508230806.47,11479,21.13,74872.5,21.41,-24.35,-27.07,0,*43
1508230807.67,11480,21.13,74872.5,21.41,-26.87,-29.57,0,*45
1508230808.97,11481,21.13,74868.8,21.39,-27.39,-30.17,0,*43
1508230810.2,11482,21.13,74870.0,21.37,-25.03,-27.51,0,*41
1508230811.43,11483,21.06,74868.3,21.37,-23.85,-26.45,0,*4C
1508230812.69,11484,21.13,74870.8,21.35,-25.45,-27.89,0,*42
1508230813.94,11485,21.06,74866.5,21.35,-23.99,-26.45,0,*45
1508230815.21,11486,21.13,74870.5,21.35,-23.65,-26.03,0,*47
1508230816.45,11487,21.06,74868.0,21.37,-23.19,-25.61,0,*48
1508230817.69,11488,21.06,74864.0,21.37,-22.93,-25.29,0,*48
1508230818.95,11489,21.06,74870.8,21.35,-23.99,-26.49,0,*45
1508230820.19,11490,21.06,74868.3,21.37,-23.75,-25.97,0,*4D
1508230821.41,11491,21.06,74868.5,21.37,-23.09,-25.61,0,*4E
1508230822.66,11492,21.06,74868.0,21.39,-23.13,-25.61,0,*48
1508230823.9,11493,21.06,74870.8,21.39,-24.47,-27.07,0,*4D
1508230825.16,11494,21.06,74870.3,21.39,-24.97,-27.61,0,*47
1508230826.39,11495,21.06,74870.8,21.37,-24.15,-26.61,0,*43
1508230827.66,11496,21.06,74864.5,21.35,-23.33,-25.65,0,*46
1508230828.89,11497,21.06,74870.5,21.37,-23.09,-25.45,0,*4E
1508230830.15,11498,21.06,74868.5,21.37,-23.03,-25.45,0,*4B
1508230831.37,11499,21.06,74870.3,21.41,-22.93,-25.35,0,*44
1508230832.6,11500,21.06,74868.5,21.41,-23.39,-25.75,0,*40
1508230833.88,11501,21.06,74864.3,21.39,-24.15,-26.55,0,*46
1508230835.14,11502,21.06,74864.5,21.39,-23.13,-25.45,0,*46
1508230836.36,11503,21.06,74866.5,21.41,-22.93,-25.39,0,*4A
1508230837.62,11504,21.06,74866.8,21.39,-23.99,-26.45,0,*41
1508230838.88,11505,21.06,74864.0,21.39,-23.95,-26.23,0,*4C
1508230840.1,11506,21.06,74870.0,21.41,-22.93,-25.35,0,*43
1508230841.33,11507,21.06,74864.0,21.41,-24.35,-26.71,0,*4B
1508230842.57,11508,21.06,74870.3,21.41,-23.29,-25.61,0,*4C
1508230843.84,11509,21.06,74870.0,21.41,-23.23,-25.71,0,*46
1508230845.08,11510,21.06,74868.0,21.43,-22.97,-25.39,0,*4E
1508230846.32,11511,21.06,74872.0,21.43,-22.97,-25.39,0,*4F
1508230847.55,11512,21.06,74868.0,21.45,-22.11,-24.67,0,*4E
1508230848.77,11513,21.06,74868.3,21.43,-22.41,-24.93,0,*47
1508230849.98,11514,21.06,74868.8,21.45,-22.87,-25.35,0,*41
1508230851.19,11515,21.06,74870.0,21.49,-22.87,-25.39,0,*40
1508230852.45,11516,21.06,74868.0,21.47,-23.49,-25.91,0,*4C
1508230853.68,11517,21.06,74868.3,21.49,-23.13,-25.45,0,*45
1508230854.91,11518,21.06,74866.0,21.49,-22.73,-25.23,0,*4D
1508230856.11,11519,21.06,74870.3,21.49,-22.41,-24.93,0,*47
1508230857.32,11520,21.06,74868.5,21.49,-22.37,-24.77,0,*46
1508230858.58,11521,21.06,74870.5,21.51,-22.77,-25.09,0,*42
1508230859.82,11522,21.06,74874.5,21.51,-22.11,-24.61,0,*4E
1508230861.08,11523,21.06,74868.3,21.51,-23.09,-25.45,0,*40
1508230862.34,11524,21.06,74868.3,21.51,-24.21,-26.49,0,*45
1508230863.6,11525,21.06,74868.5,21.51,-25.55,-27.89,0,*4B
1508230864.86,11526,21.06,74864.3,21.51,-23.65,-26.03,0,*4E
1508230866.1,11527,21.06,74868.3,21.51,-23.59,-26.03,0,*40
1508230867.37,11528,21.06,74868.8,21.51,-23.75,-26.17,0,*44
1508230868.61,11529,21.06,74868.8,21.51,-22.97,-25.39,0,*47
1508230869.85,11530,21.06,74868.3,21.51,-23.13,-25.61,0,*4F
1508230871.08,11531,21.06,74868.5,21.53,-23.33,-25.65,0,*4A
1508230872.31,11532,21.06,74868.3,21.53,-22.73,-25.19,0,*47
1508230873.55,11533,21.0,74864.3,21.53,-23.89,-26.29,0,*42
1508230874.81,11534,21.06,74870.8,21.53,-22.77,-25.29,0,*46
1508230876.04,11535,21.0,74866.3,21.57,-22.83,-25.23,0,*42
1508230877.3,11536,21.06,74868.5,21.57,-22.73,-25.09,0,*46
1508230878.54,11537,21.06,74870.0,21.59,-23.19,-25.65,0,*4E
1508230879.82,11538,21.0,74866.0,21.57,-22.73,-25.29,0,*4A
1508230881.11,11539,21.06,74868.5,21.57,-22.73,-25.29,0,*4B
1508230882.32,11540,21.0,74864.5,21.59,-22.57,-24.93,0,*4D
1508230883.53,11541,21.0,74866.0,21.59,-22.67,-25.09,0,*4D
1508230884.79,11542,21.0,74866.3,21.59,-23.29,-25.75,0,*4E
1508230886.05,11543,21.0,74868.0,21.59,-23.85,-26.29,0,*43
1508230887.26,11544,21.06,74870.0,21.59,-25.13,-27.51,0,*43
1508230888.47,11545,21.0,74866.0,21.59,-23.79,-26.07,0,*4A
1508230889.71,11546,21.0,74864.0,21.59,-23.19,-25.61,0,*4C
1508230890.98,11547,21.0,74866.0,21.57,-23.19,-25.61,0,*43
1508230892.24,11548,21.0,74866.0,21.59,-23.49,-25.81,0,*49
1508230893.48,11549,21.0,74866.3,21.57,-24.35,-26.65,0,*43
1508230894.72,11550,21.0,74870.5,21.59,-23.29,-25.49,0,*42
1508230895.98,11551,21.0,74868.3,21.61,-22.97,-25.45,0,*40
1508230897.22,11552,21.0,74868.0,21.61,-24.05,-26.39,0,*46
1508230898.45,11553,21.0,74866.8,21.61,-23.13,-25.39,0,*44
1508230899.68,11554,21.0,74868.8,21.59,-23.13,-25.45,0,*43
1508230900.89,11555,21.0,74868.0,21.59,-25.13,-27.51,0,*43
1508230902.15,11556,21.0,74864.8,21.59,-26.29,-29.01,0,*41
1508230903.41,11557,21.0,74868.3,21.57,-24.61,-26.97,0,*40
1508230904.69,11558,21.0,74866.8,21.57,-23.69,-26.13,0,*4C
1508230905.98,11559,21.0,74864.0,21.57,-23.03,-25.45,0,*41
1508230907.22,11560,21.0,74866.3,21.59,-23.29,-25.61,0,*4B
1508230908.47,11561,21.0,74866.5,21.57,-23.53,-25.91,0,*46
1508230909.76,11562,21.0,74866.0,21.57,-23.49,-25.75,0,*44
1508230911.0,11563,21.0,74866.8,21.57,-23.39,-25.65,0,*43
1508230912.23,11564,21.0,74866.0,21.59,-23.39,-25.75,0,*4B
1508230913.45,11565,21.0,74864.0,21.59,-23.13,-25.49,0,*4D
1508230914.66,11566,21.0,74866.0,21.59,-22.57,-24.97,0,*4D
1508230915.89,11567,21.0,74870.5,21.61,-22.67,-25.19,0,*43
1508230917.13,11568,21.0,74868.3,21.63,-22.47,-24.97,0,*4B
1508230918.36,11569,21.0,74872.3,21.61,-23.43,-25.87,0,*4D
1508230919.62,11570,21.0,74864.3,21.61,-23.49,-25.87,0,*4F
1508230920.87,11571,21.0,74868.0,21.61,-23.49,-25.91,0,*49
1508230922.13,11572,21.0,74870.5,21.61,-23.13,-25.45,0,*4C
1508230923.36,11573,21.0,74866.8,21.61,-22.67,-25.09,0,*47
1508230924.61,11574,21.0,74866.0,21.63,-22.57,-25.03,0,*4B
1508230925.84,11575,21.0,74868.0,21.63,-22.41,-24.83,0,*44
1508230927.07,11576,21.0,74868.0,21.65,-22.57,-24.97,0,*43
1508230928.33,11577,21.0,74866.0,21.65,-23.43,-25.81,0,*40
1508230929.61,11578,21.0,74864.8,21.65,-23.85,-26.29,0,*44
1508230930.84,11579,21.0,74870.0,21.65,-23.39,-25.65,0,*49
1508230932.09,11580,21.0,74866.8,21.67,-23.03,-25.45,0,*46
1508230933.35,11581,21.0,74868.5,21.65,-23.43,-25.71,0,*46
1508230934.61,11582,21.0,74868.3,21.65,-23.19,-25.39,0,*46
1508230935.87,11583,21.0,74866.8,21.65,-23.75,-26.17,0,*42
1508230937.09,11584,21.0,74868.8,21.65,-25.23,-27.71,0,*41
1508230938.34,11585,21.0,74866.0,21.63,-23.75,-25.97,0,*49
1508230939.57,11586,21.0,74866.8,21.63,-22.63,-25.03,0,*41
1508230940.82,11587,20.94,74864.3,21.65,-22.63,-25.03,0,*46
1508230942.08,11588,21.0,74866.3,21.65,-23.39,-25.71,0,*42
1508230943.31,11589,21.0,74866.8,21.67,-23.33,-25.49,0,*40
1508230944.52,11590,20.94,74864.0,21.67,-22.53,-24.77,0,*43
1508230945.75,11591,20.94,74866.3,21.67,-22.21,-24.47,0,*44
1508230946.95,11592,20.94,74866.0,21.67,-22.41,-24.93,0,*48
1508230948.21,11593,21.0,74866.8,21.69,-22.53,-24.87,0,*41
1508230949.44,11594,21.0,74866.8,21.71,-22.41,-24.83,0,*48
1508230950.73,11595,20.94,74866.3,21.69,-22.31,-24.71,0,*4A
1508230951.94,11596,20.94,74866.0,21.71,-22.93,-25.23,0,*4E
1508230953.2,11597,20.94,74864.0,21.69,-23.19,-25.61,0,*43
1508230954.44,11598,21.0,74868.5,21.73,-23.13,-25.49,0,*47
1508230955.72,11599,21.0,74868.8,21.73,-23.23,-25.55,0,*48
1508230956.97,11600,20.94,74864.0,21.73,-22.41,-24.83,0,*44
1508230958.23,11601,20.94,74864.3,21.73,-23.75,-26.17,0,*4C
1508230959.46,11602,20.94,74866.8,21.73,-23.13,-25.39,0,*40
1508230960.71,11603,20.94,74866.8,21.73,-22.41,-24.67,0,*4D
1508230961.96,11604,20.94,74864.5,21.73,-23.13,-25.55,0,*4C
1508230963.2,11605,20.94,74864.5,21.75,-24.21,-26.65,0,*4D
1508230964.48,11606,20.94,74864.8,21.73,-23.53,-25.81,0,*43
1508230965.71,11607,20.94,74866.5,21.75,-23.79,-26.17,0,*40
1508230966.98,11608,20.94,74864.8,21.73,-23.85,-26.17,0,*4A
1508230968.22,11609,20.94,74864.8,21.73,-23.09,-25.39,0,*40
1508230969.47,11610,20.94,74868.0,21.73,-23.39,-25.71,0,*47
1508230970.7,11611,20.94,74864.3,21.73,-22.93,-25.35,0,*47
1508230971.93,11612,20.94,74868.0,21.75,-23.33,-25.65,0,*4C
1508230973.22,11613,20.94,74868.3,21.73,-24.11,-26.81,0,*45
1508230974.5,11614,20.94,74870.8,21.73,-24.41,-26.71,0,*48
1508230975.74,11615,20.94,74864.0,21.71,-23.43,-25.71,0,*4D
1508230977.02,11616,20.94,74866.0,21.73,-23.85,-26.17,0,*45
1508230978.3,11617,20.94,74866.0,21.73,-23.29,-25.55,0,*47
1508230979.56,11618,20.94,74868.3,21.73,-23.03,-25.39,0,*4A
1508230980.79,11619,20.94,74864.0,21.71,-23.23,-25.39,0,*4B
1508230982.02,11620,20.94,74864.8,21.75,-22.83,-25.03,0,*47
1508230983.27,11621,20.94,74868.5,21.73,-22.73,-25.09,0,*45
1508230984.47,11622,20.94,74864.0,21.75,-22.87,-25.13,0,*40
1508230985.69,11623,20.94,74866.8,21.75,-23.09,-25.49,0,*49
1508230986.97,11624,20.94,74866.5,21.73,-23.23,-25.55,0,*4D
1508230988.2,11625,20.94,74868.5,21.73,-24.05,-26.23,0,*4D
1508230989.45,11626,20.94,74868.0,21.73,-23.43,-25.81,0,*40
1508230990.66,11627,20.94,74866.5,21.75,-22.57,-24.93,0,*41
1508230991.88,11628,20.94,74868.3,21.75,-22.87,-25.29,0,*43
1508230993.11,11629,20.94,74864.5,21.75,-22.87,-25.29,0,*42
1508230994.33,11630,20.94,74864.5,21.75,-22.73,-25.13,0,*48
1508230995.59,11631,20.94,74866.0,21.75,-23.65,-26.13,0,*4C
1508230996.85,11632,20.94,74864.5,21.79,-24.71,-26.93,0,*49
1508230998.08,11633,20.94,74866.8,21.75,-23.49,-25.65,0,*42
1508230999.34,11634,20.94,74864.5,21.73,-23.03,-25.23,0,*4F
1508231000.6,11635,20.94,74866.0,21.73,-23.13,-25.55,0,*4E
1508231001.81,11636,20.94,74864.8,21.79,-22.83,-25.13,0,*4D
1508231003.07,11637,20.94,74866.8,21.79,-23.19,-25.71,0,*4A
1508231004.28,11638,20.94,74864.5,21.79,-22.37,-24.77,0,*4F
1508231005.52,11639,20.94,74864.5,21.79,-22.21,-24.61,0,*4E
1508231006.75,11640,20.94,74864.8,21.79,-22.77,-25.23,0,*44
1508231007.96,11641,20.94,74866.8,21.79,-22.97,-25.23,0,*4B
1508231009.2,11642,20.88,74866.0,21.79,-23.49,-26.03,0,*4B
1508231010.41,11643,20.94,74864.0,21.79,-24.61,-27.07,0,*42
1508231011.67,11644,20.94,74868.5,21.79,-23.95,-26.29,0,*44
1508231012.91,11645,20.94,74866.0,21.79,-22.97,-25.29,0,*45
1508231014.12,11646,20.94,74864.8,21.79,-22.67,-25.09,0,*4B
1508231015.36,11647,20.88,74866.5,21.79,-22.97,-25.29,0,*47
1508231016.57,11648,20.88,74866.0,21.79,-23.43,-25.87,0,*44
1508231017.83,11649,20.94,74868.5,21.79,-23.03,-25.29,0,*45
1508231019.04,11650,20.88,74866.3,21.79,-22.93,-25.39,0,*44
1508231020.29,11651,20.88,74862.3,21.81,-22.63,-25.03,0,*44
1508231021.52,11652,20.88,74864.5,21.81,-22.93,-25.23,0,*4A
1508231022.77,11653,20.88,74866.5,21.81,-22.27,-24.67,0,*45
1508231024.03,11654,20.88,74864.3,21.83,-22.47,-24.87,0,*48
1508231025.23,11655,20.88,74866.0,21.83,-22.11,-24.35,0,*43
1508231026.48,11656,20.88,74864.8,21.83,-22.31,-24.83,0,*4F
1508231027.71,11657,20.88,74866.5,21.83,-22.73,-25.09,0,*4B
1508231028.94,11658,20.88,74866.5,21.83,-23.29,-25.65,0,*40
1508231030.15,11659,20.88,74868.3,21.83,-23.09,-25.35,0,*46
1508231031.41,11660,20.88,74864.8,21.83,-22.77,-25.03,0,*41
1508231032.64,11661,20.88,74866.8,21.85,-22.53,-24.77,0,*42
1508231033.88,11662,20.88,74868.3,21.85,-22.53,-24.77,0,*41
1508231035.1,11663,20.88,74864.5,21.85,-22.41,-24.77,0,*43
1508231036.35,11664,20.88,74864.0,21.85,-22.41,-24.87,0,*4B
1508231037.63,11665,20.88,74866.8,21.85,-22.73,-25.29,0,*4E
1508231038.86,11666,20.88,74864.0,21.83,-23.39,-25.71,0,*49
1508231040.11,11667,20.88,74868.0,21.85,-23.03,-25.19,0,*49
1508231041.39,11668,20.88,74868.5,21.85,-23.69,-25.97,0,*4C
1508231042.65,11669,20.88,74864.8,21.85,-24.35,-26.81,0,*47
1508231043.85,11670,20.88,74864.0,21.83,-22.93,-25.23,0,*48
1508231045.11,11671,20.88,74866.5,21.85,-22.67,-25.03,0,*46
1508231046.36,11672,20.88,74870.0,21.85,-23.23,-25.61,0,*40
1508231047.6,11673,20.88,74862.5,21.85,-23.09,-25.49,0,*43
1508231048.89,11674,20.88,74862.5,21.85,-23.53,-25.75,0,*44
1508231050.12,11675,20.88,74866.0,21.83,-23.59,-25.97,0,*45
1508231051.33,11676,20.88,74866.8,21.87,-25.61,-27.93,0,*49
1508231052.58,11677,20.88,74862.8,21.83,-23.95,-26.33,0,*4A
1508231053.81,11678,20.88,74864.8,21.83,-23.69,-26.03,0,*45
1508231055.04,11679,20.88,74864.0,21.83,-23.95,-26.23,0,*45
1508231056.25,11680,20.88,74864.0,21.83,-23.43,-25.65,0,*49
1508231057.51,11681,20.88,74864.5,21.85,-24.83,-27.29,0,*4F
1508231058.77,11682,20.88,74860.8,21.81,-24.67,-27.03,0,*4A
1508231060.0,11683,20.88,74864.3,21.81,-23.89,-26.23,0,*4F
1508231061.25,11684,20.88,74860.5,21.79,-25.29,-27.61,0,*44
1508231062.49,11685,20.88,74864.0,21.79,-24.71,-27.13,0,*4C
1508231063.7,11686,20.88,74860.5,21.79,-23.59,-25.91,0,*4A
1508231064.91,11687,20.88,74866.8,21.79,-23.59,-25.87,0,*4C
1508231066.11,11688,20.88,74864.8,21.79,-22.83,-25.23,0,*4B
1508231067.32,11689,20.81,74860.0,21.79,-22.53,-24.93,0,*4D
1508231068.56,11690,20.88,74860.3,21.79,-23.65,-26.07,0,*4E
1508231069.78,11691,20.88,74862.3,21.79,-23.75,-26.03,0,*4A
1508231071.06,11692,20.88,74866.5,21.81,-22.47,-24.87,0,*40
1508231072.26,11693,20.81,74860.8,21.79,-22.83,-24.97,0,*4F
1508231073.52,11694,20.88,74866.3,21.81,-23.95,-26.23,0,*44
1508231074.78,11695,20.88,74864.0,21.79,-23.29,-25.55,0,*47
1508231076.03,11696,20.81,74864.0,21.81,-23.53,-25.87,0,*41
1508231077.26,11697,20.88,74864.3,21.79,-24.15,-26.45,0,*4F
1508231078.5,11698,20.81,74864.0,21.79,-23.89,-26.29,0,*48
1508231079.7,11699,20.88,74864.0,21.79,-25.39,-27.77,0,*4E
1508231080.93,11700,20.81,74864.5,21.75,-25.19,-27.61,0,*46
1508231082.16,11701,20.88,74864.5,21.73,-25.87,-28.31,0,*4C
1508231083.41,11702,20.88,74864.8,21.73,-23.85,-26.49,0,*4A
1508231084.66,11703,20.81,74860.5,21.75,-23.99,-26.17,0,*4B
1508231085.92,11704,20.81,74860.3,21.73,-22.77,-25.19,0,*46
1508231087.14,11705,20.81,74864.0,21.75,-22.21,-24.51,0,*4F
1508231088.37,11706,20.81,74864.0,21.73,-22.93,-25.23,0,*47
1508231089.6,11707,20.81,74862.5,21.75,-23.49,-25.91,0,*4F
1508231090.83,11708,20.81,74862.5,21.75,-23.79,-25.97,0,*45
1508231092.05,11709,20.81,74862.5,21.75,-23.69,-26.07,0,*4F
1508231093.29,11710,20.81,74860.0,21.75,-23.23,-25.49,0,*40
1508231094.52,11711,20.81,74860.8,21.75,-23.75,-26.13,0,*4E
1508231095.75,11712,20.81,74866.5,21.75,-23.03,-25.35,0,*4B
1508231096.95,11713,20.81,74866.5,21.75,-22.97,-25.19,0,*48
1508231098.2,11714,20.81,74864.8,21.81,-22.41,-24.67,0,*47
1508231099.43,11715,20.81,74862.5,21.79,-22.31,-24.77,0,*47
1508231100.64,11716,20.81,74864.0,21.79,-22.63,-25.09,0,*4B
1508231101.85,11717,20.81,74866.3,21.79,-23.59,-26.07,0,*4F
1508231103.11,11718,20.81,74862.8,21.81,-23.29,-25.65,0,*47
1508231104.37,11719,20.81,74866.3,21.81,-22.57,-24.87,0,*43
1508231105.62,11720,20.81,74866.3,21.81,-23.53,-25.65,0,*41
1508231106.83,11721,20.81,74864.0,21.79,-22.83,-25.23,0,*49
1508231108.03,11722,20.81,74864.5,21.79,-22.41,-24.93,0,*4E
1508231109.25,11723,20.81,74866.0,21.79,-23.75,-26.03,0,*42
1508231110.51,11724,20.81,74866.3,21.81,-23.53,-25.87,0,*49
1508231111.74,11725,20.81,74864.8,21.79,-23.19,-25.39,0,*44
1508231112.99,11726,20.81,74866.8,21.79,-23.75,-26.13,0,*46
1508231114.24,11727,20.81,74864.8,21.79,-23.19,-25.45,0,*4D
1508231115.45,11728,20.81,74866.3,21.79,-23.59,-25.87,0,*48
1508231116.71,11729,20.81,74864.0,21.81,-23.75,-25.97,0,*41
1508231117.95,11730,20.81,74866.0,21.81,-23.13,-25.39,0,*4D
1508231119.16,11731,20.81,74866.8,21.79,-22.97,-25.23,0,*4D
1508231120.41,11732,20.81,74866.8,21.81,-22.57,-24.87,0,*4A
1508231121.64,11733,20.81,74864.8,21.83,-22.63,-25.03,0,*43
1508231122.9,11734,20.81,74864.0,21.83,-24.21,-26.71,0,*42
1508231124.13,11735,20.81,74866.8,21.79,-26.39,-28.91,0,*4D
1508231125.35,11736,20.81,74866.5,21.79,-24.97,-27.45,0,*4E
1508231126.59,11737,20.81,74864.3,21.79,-24.41,-27.03,0,*46
1508231127.85,11738,20.81,74862.8,21.75,-23.85,-26.13,0,*4A
1508231129.1,11739,20.81,74862.0,21.75,-24.83,-27.19,0,*41
1508231130.36,11740,20.81,74860.5,21.75,-23.85,-26.17,0,*41
1508231131.62,11741,20.81,74862.3,21.73,-23.43,-25.71,0,*4F
1508231132.85,11742,20.81,74864.8,21.75,-24.83,-27.93,0,*4F
1508231134.08,11743,20.81,74864.3,21.73,-26.39,-28.85,0,*43
1508231135.31,11744,20.81,74864.0,21.69,-24.77,-27.03,0,*46
1508231136.57,11745,20.81,74864.3,21.71,-23.85,-26.13,0,*44
1508231137.81,11746,20.81,74862.5,21.71,-23.23,-25.49,0,*47
1508231139.02,11747,20.75,74862.5,21.71,-24.05,-26.49,0,*46
1508231140.22,11748,20.81,74862.0,21.71,-22.87,-25.23,0,*4A
1508231141.44,11749,20.81,74864.8,21.71,-23.43,-25.87,0,*4C
1508231142.7,11750,20.75,74862.0,21.71,-23.53,-25.81,0,*43
1508231143.94,11751,20.81,74866.0,21.71,-24.21,-27.03,0,*48
1508231145.19,11752,20.81,74866.0,21.69,-25.13,-27.45,0,*40
1508231146.45,11753,20.81,74866.0,21.69,-24.57,-26.93,0,*4A
1508231147.68,11754,20.75,74862.5,21.71,-23.33,-25.65,0,*4B
1508231148.95,11755,20.81,74866.3,21.69,-23.43,-25.75,0,*45
1508231150.21,11756,20.75,74860.3,21.69,-23.29,-25.61,0,*4F
1508231151.47,11757,20.81,74866.0,21.69,-22.77,-25.13,0,*41
1508231152.71,11758,20.81,74866.0,21.71,-23.19,-25.87,0,*43
1508231153.95,11759,20.75,74862.5,21.71,-24.71,-27.03,0,*45
1508231155.21,11760,20.75,74860.0,21.69,-23.89,-26.17,0,*42
1508231156.42,11761,20.75,74862.8,21.71,-23.09,-25.39,0,*4D
1508231157.69,11762,20.75,74866.8,21.71,-23.29,-25.55,0,*46
1508231158.93,11763,20.75,74862.0,21.71,-23.53,-25.65,0,*49
1508231160.16,11764,20.75,74866.0,21.69,-22.67,-25.09,0,*4B
1508231161.39,11765,20.75,74862.5,21.75,-23.33,-25.65,0,*4D
1508231162.62,11766,20.75,74862.8,21.73,-23.59,-25.87,0,*48
1508231163.85,11767,20.75,74862.8,21.73,-23.09,-25.35,0,*45
1508231165.08,11768,20.75,74860.0,21.73,-23.39,-25.65,0,*4C
1508231166.34,11769,20.75,74860.5,21.75,-23.53,-25.97,0,*4A
1508231167.62,11770,20.75,74862.3,21.73,-24.25,-26.71,0,*49
1508231168.86,11771,20.75,74860.5,21.73,-23.75,-26.03,0,*4F
1508231170.09,11772,20.75,74862.5,21.75,-23.79,-25.97,0,*48
1508231171.32,11773,20.75,74860.8,21.73,-23.13,-25.23,0,*4C
1508231172.52,11774,20.75,74866.5,21.75,-24.05,-26.49,0,*42
1508231173.78,11775,20.75,74866.3,21.73,-24.67,-27.03,0,*4E
1508231175.03,11776,20.75,74862.5,21.73,-23.39,-25.55,0,*40
1508231176.31,11777,20.75,74864.3,21.73,-23.29,-25.55,0,*40
1508231177.58,11778,20.75,74864.8,21.73,-24.25,-26.65,0,*44
1508231178.83,11779,20.75,74864.0,21.73,-24.67,-27.03,0,*42
1508231180.08,11780,20.75,74864.5,21.73,-25.09,-27.39,0,*44
1508231181.34,11781,20.75,74864.8,21.73,-23.29,-25.65,0,*4A
1508231182.59,11782,20.75,74864.3,21.73,-23.03,-25.35,0,*44
1508231183.87,11783,20.75,74862.5,21.73,-23.69,-25.97,0,*41
1508231185.14,11784,20.75,74862.3,21.73,-23.69,-25.81,0,*41
1508231186.35,11785,20.75,74860.8,21.71,-23.09,-25.39,0,*47
1508231187.61,11786,20.75,74866.8,21.73,-23.29,-25.65,0,*4D
1508231188.86,11787,20.75,74866.5,21.75,-23.49,-25.81,0,*46
1508231190.09,11788,20.75,74862.3,21.75,-24.21,-26.61,0,*4D
1508231191.38,11789,20.75,74866.5,21.73,-24.21,-26.33,0,*4D
1508231192.65,11790,20.75,74868.3,21.73,-24.87,-27.45,0,*49
1508231193.88,11791,20.75,74866.0,21.73,-25.09,-27.51,0,*4A
1508231195.14,11792,20.75,74866.8,21.71,-23.85,-26.13,0,*4E
1508231196.38,11793,20.75,74864.5,21.71,-22.77,-25.09,0,*4B
1508231197.61,11794,20.75,74866.3,21.71,-23.99,-26.23,0,*46
1508231198.83,11795,20.75,74862.8,21.69,-22.63,-24.93,0,*43
1508231200.07,11796,20.75,74864.3,21.75,-22.53,-24.83,0,*4F
1508231201.32,11797,20.75,74864.3,21.73,-23.03,-25.35,0,*40
1508231202.6,11798,20.69,74860.5,21.73,-23.29,-25.81,0,*48
1508231203.83,11799,20.75,74866.0,21.73,-22.93,-25.23,0,*41
1508231205.06,11800,20.75,74866.8,21.75,-22.57,-25.03,0,*42
1508231206.26,11801,20.75,74866.0,21.75,-22.57,-24.97,0,*4F
1508231207.54,11802,20.75,74868.3,21.73,-22.47,-24.87,0,*4A
1508231208.77,11803,20.75,74864.0,21.73,-23.39,-25.87,0,*42
1508231209.97,11804,20.75,74864.3,21.75,-22.83,-25.19,0,*44
1508231211.19,11805,20.75,74862.8,21.75,-24.67,-27.13,0,*41
1508231212.42,11806,20.69,74862.3,21.75,-24.21,-26.61,0,*44
1508231213.68,11807,20.75,74866.8,21.75,-23.49,-25.81,0,*41
1508231214.93,11808,20.75,74864.5,21.73,-22.57,-25.03,0,*4C
1508231216.13,11809,20.69,74862.5,21.75,-22.83,-25.19,0,*49
1508231217.36,11810,20.69,74862.5,21.75,-23.69,-26.07,0,*48
1508231218.61,11811,20.69,74864.8,21.75,-23.99,-26.13,0,*43
1508231219.82,11812,20.69,74862.3,21.79,-22.83,-25.13,0,*45
1508231221.02,11813,20.69,74864.3,21.75,-22.97,-25.35,0,*49
1508231222.28,11814,20.69,74864.0,21.75,-23.03,-25.45,0,*45
1508231223.51,11815,20.69,74864.5,21.79,-23.13,-25.55,0,*48
1508231224.73,11816,20.69,74860.3,21.79,-23.43,-25.87,0,*41
1508231225.94,11817,20.69,74864.3,21.79,-23.43,-25.91,0,*47
1508231227.22,11818,20.69,74866.3,21.81,-23.53,-25.97,0,*48
1508231228.43,11819,20.69,74862.5,21.79,-23.59,-25.91,0,*42
1508231229.69,11820,20.69,74862.0,21.75,-24.21,-26.77,0,*47
1508231230.94,11821,20.69,74864.3,21.75,-23.65,-26.13,0,*43
1508231232.19,11822,20.69,74862.0,21.75,-23.23,-25.45,0,*42
1508231233.4,11823,20.69,74862.5,21.75,-23.09,-25.35,0,*4C
1508231234.59,11824,20.69,74864.3,21.75,-23.39,-25.65,0,*4D
1508231235.8,11825,20.69,74862.8,21.75,-22.83,-25.13,0,*4D
1508231237.02,11826,20.69,74864.3,21.75,-22.73,-24.97,0,*4C
1508231238.22,11827,20.69,74862.3,21.79,-22.63,-24.97,0,*40
1508231239.51,11828,20.69,74866.3,21.81,-23.29,-25.55,0,*48
1508231240.75,11829,20.69,74866.3,21.79,-23.19,-25.61,0,*4A
1508231242.01,11830,20.69,74862.8,21.79,-23.33,-25.75,0,*4F
1508231243.26,11831,20.69,74860.3,21.81,-23.23,-25.65,0,*49
1508231244.48,11832,20.69,74866.5,21.79,-23.75,-26.07,0,*49
1508231245.74,11833,20.69,74864.5,21.79,-23.49,-25.75,0,*41
1508231246.98,11834,20.69,74866.3,21.79,-23.13,-25.55,0,*4B
1508231248.21,11835,20.69,74864.8,21.81,-22.63,-25.09,0,*42
1508231249.42,11836,20.69,74860.3,21.79,-23.13,-25.39,0,*43
1508231250.66,11837,20.69,74860.8,21.81,-23.09,-25.49,0,*49
1508231251.89,11838,20.69,74866.5,21.81,-22.97,-25.23,0,*4C
1508231253.09,11839,20.69,74866.3,21.83,-22.87,-25.09,0,*46
1508231254.38,11840,20.69,74866.5,21.81,-23.23,-25.55,0,*4C
1508231255.61,11841,20.69,74864.0,21.81,-23.09,-25.49,0,*48
1508231256.9,11842,20.69,74868.0,21.81,-22.47,-25.03,0,*4E
1508231258.15,11843,20.69,74866.5,21.83,-22.73,-25.03,0,*4A
1508231259.35,11844,20.69,74862.8,21.83,-22.57,-24.97,0,*47
1508231260.59,11845,20.69,74864.0,21.83,-23.09,-25.55,0,*43
1508231261.82,11846,20.69,74864.8,21.85,-22.93,-25.35,0,*42
1508231263.03,11847,20.69,74860.8,21.83,-22.87,-25.35,0,*40
1508231264.23,11848,20.63,74860.3,21.83,-23.89,-26.23,0,*44
1508231265.46,11849,20.69,74860.8,21.83,-23.85,-26.07,0,*4F
1508231266.7,11850,20.69,74862.3,21.85,-23.39,-25.81,0,*4B
1508231267.99,11851,20.69,74862.0,21.85,-23.49,-25.97,0,*4A
1508231269.25,11852,20.69,74860.0,21.83,-23.53,-25.97,0,*44
1508231270.49,11853,20.63,74864.0,21.83,-23.09,-25.55,0,*44
1508231271.74,11854,20.69,74862.5,21.85,-23.23,-25.65,0,*4E
1508231272.94,11855,20.69,74866.8,21.83,-22.87,-25.19,0,*4D
1508231274.17,11856,20.69,74864.3,21.85,-22.87,-25.19,0,*48
1508231275.39,11857,20.63,74864.0,21.85,-22.67,-24.97,0,*40
1508231276.65,11858,20.63,74860.8,21.85,-23.79,-25.97,0,*40
1508231277.88,11859,20.63,74864.8,21.85,-23.39,-25.61,0,*4C
1508231279.14,11860,20.63,74862.0,21.85,-24.35,-26.77,0,*49
1508231280.39,11861,20.63,74864.8,21.87,-24.87,-27.19,0,*4A
1508231281.66,11862,20.69,74866.5,21.85,-23.69,-25.97,0,*48
1508231282.9,11863,20.63,74862.8,21.85,-24.77,-27.03,0,*4E
1508231284.18,11864,20.63,74866.0,21.85,-24.67,-26.81,0,*43
1508231285.43,11865,20.63,74864.5,21.85,-23.03,-25.35,0,*4B
1508231286.68,11866,20.63,74866.0,21.83,-23.69,-25.97,0,*4A
1508231287.91,11867,20.63,74864.0,21.85,-25.19,-27.67,0,*41
1508231289.15,11868,20.63,74862.8,21.85,-24.15,-26.49,0,*4E
1508231290.41,11869,20.63,74862.8,21.81,-23.95,-26.39,0,*43
1508231291.64,11870,20.63,74860.3,21.83,-23.89,-26.33,0,*4E
1508231292.89,11871,20.63,74858.8,21.81,-23.85,-26.23,0,*40
1508231294.15,11872,20.63,74862.0,21.81,-23.43,-25.81,0,*42
1508231295.38,11873,20.63,74862.3,21.81,-23.13,-25.39,0,*45
1508231296.64,11874,20.63,74862.0,21.81,-24.41,-26.65,0,*48